Location: Unspecified
(33.6682°S, 0.0000°E)
Time: 14:01:28
(UTC+00:00)

Tiros 1 despin weight - Pass Details

Date: 24 June 2019
Orbit: 594 x 642 km, 48.2° (Epoch: 15 July)

Event Time Altitude Azimuth Distance (km) Brightness Sun altitude
Rises 14:07:33 0° 228° (SW) 2,965 ? 25.6°
Reaches altitude 10° 14:10:42 10° 206° (SSW) 2,058 ? 25.3°
Maximum altitude 14:13:43 16° 167° (SSE) 1,672 ? 24.9°
Drops below altitude 10° 14:16:43 10° 128° (SE) 2,055 ? 24.6°
Sets 14:19:52 0° 106° (ESE) 2,960 ? 24.2°
